User: anonymous
Location: Oshawa
(43.9000°N, 78.8670°W)
Time: 17:11:58
(UTC-04:00)
Language:

Iridium 98 - Orbit

View from above orbital plane
View from above orbital plane
View from above satellite
View from above satellite

Ground track
Ground track

The orbit data is extracted from the following two-line orbital elements,

1 27451U 02031B   14245.44808446  .00000084  00000-0  22981-4 0  4688
2 27451 086.3918 088.1028 0001919 102.7156 303.1602 14.34216945645284
Epoch (UTC): 02 September 2014 10:45:14
Eccentricity: 0.0001919
inclination: 86.3918°
perigee height: 776 km
apogee height: 779 km
right ascension of ascending node: 88.1028°
argument of perigee: 102.7156°
revolutions per day: 14.34216945
mean anomaly at epoch: 303.1602°
orbit number at epoch: 64528

The dashed part of the orbit path shows where the satellite is in the earth's shadow,  

DLR